STARLINK-11406, 63057

Orbit data source: Space-Track

STARLINK-11406, 63057 is a payload satellite owned by SpaceX/Seattle (US) in LEO that was launched on Fri, 21 Feb 2025 UTC via an FALCON 9 launch vehicle from the Air Force Eastern Test Range (AFETR). Payload-class satellites include a variety of spacecraft equipped with specific instruments for various scientific and technological missions. These include communications satellites like Starlink; space stations such as the ISS; scientific satellites like the Hubble; Earth observation satellites from companies like Planet Labs, Umbra, and HawkEye 360; GPS; miniature CubeSats for education and research; and military/defense satellites.

Loading next visibility...
Identifier
63057, 2025-035F
Orbit
LEO
Country
Flag of USUS
Related business
Manufacturer
SpaceX/Seattle
Mission
Operational Commercial Communications
Bus & Motor
STARLINK V2MD, Unknown motor
Mass
960 kg wet, ~910 kg dry
Launch date (UTC)
2025-02-21 (1 year ago)
Launch vehicle
FALCON 9
Launch site
Air Force Eastern Test Range (AFETR)
Object type
Payload
Rocket body
Debris
Shape & HBR
Box + 2 Pan, 18.1 m
Radar Cross Section
36.964 m², Large (>1 m²)

Expand to show TLE details & history
Last TLE update: 16 hours ago

TLE from 16 hours ago
0 STARLINK-11406
1 63057U 25035F   26171.19882428  .00215346  00000-0  16371-2 0  9996
2 63057  43.0016 117.3816 0002369 251.9846 108.0764 15.70861399 77222
Epoch: 2026-06-20T04:46Z
TLE epoch observation values (Epoch: 2026-06-20T04:46:18.417Z)
Latitude
-0.00001°
Longitude
137.38797°
Altitude
356.701 km
Speed
7.697 km/s
True Right ascension
07h 49m 31s
True Declination
0° 00' 00"
Sunlit
Object was in daylight at epoch
Visualization orbit readout
Latitude
Unknown
Longitude
Unknown
Altitude
Unknown
Speed
Unknown
Apparent Right ascension
Unknown
Apparent Declination
Unknown
Sunlit
N/A
Visualization observer readout
Local Sidereal Time
07:18:02
Azimuth
Unknown
Elevation
Unknown
Doppler factor
Unknown
Orbital elements
Apogee altitude
360.011 km
Perigee altitude
356.819 km
Semi-major axis
6,736.552 km
Eccentricity
0.00024
Inclination
43.0016°
RAAN
117.3816°
Arg. of periapsis
251.9846°
True anomaly
108.1022°
Mean anomaly
108.0764°
Eccentric anomaly
108.0893°
Mean motion
3.92542 °/min
Orbital period
91.71 mins
BSTAR
0.0016371
Loading maneuver chart data...
Computing Atmospheric mass density...
Loading historical data...
Loading historical data...
Loading historical data...
Loading historical data...
Loading historical data...
Loading historical data...
Loading historical data...

Documentation

Showing up to 5 results
|